Hourly Data Report for September 29, 2017

All times are specified in Local Standard Time (LST). Add 1 hour to adjust for Daylight Saving Time where and when it is observed.

CLYDE RIVER A
NUNAVUT

70°29'09.000" N
68°31'01.000" W
26.50 m
2400804
71090
YCY

Download Data

Hourly Data (September 2017)
Hourly Data Report for September 29, 2017
Temp Definition
°C
Dew Point Temp Definition
°C
Rel Hum Definition
%
Wind Dir Definition
10's deg

Wind Spd Definition
km/h
Visibility Definition
km
Stn Press Definition
kPa
Hmdx Definition


Wind Chill Definition


Weather Definition


TIME
00:00 Legend Double Dagger -2.8 -4.2 90 30 11 16.1 100.03   -7 LegendNANA
01:00 Legend Double Dagger -2.3 -5.0 82 31 13 16.1 100.05   -7 LegendNANA
02:00 Legend Double Dagger -2.1 -5.0 81 27 13 16.1 100.07   -7 LegendNANA
03:00 Legend Double Dagger -3.2 -5.7 83 28 15 16.1 100.10   -8 LegendNANA
04:00 Legend Double Dagger -3.4 -6.5 79 28 15 16.1 100.13   -9 LegendNANA
05:00 Legend Double Dagger -3.9 -7.4 77 29 17 16.1 100.17   -10 LegendNANA
06:00 Legend Double Dagger -4.2 -7.2 80 31 13 16.1 100.18   -9 LegendNANA
07:00 Legend Double Dagger -4.3 -7.3 80 31 13 16.1 100.20   -9 LegendNANA
08:00 Legend Double Dagger -4.4 -7.8 78 29 15 16.1 100.22   -10 LegendNANA
09:00 Legend Double Dagger -4.2 -8.2 74 29 17 16.1 100.22   -10 LegendNANA
10:00 Legend Double Dagger -3.9 -8.1 73 29 15 16.1 100.22   -9 LegendNANA
11:00 Legend Double Dagger -3.7 -8.1 72 30 13 16.1 100.26   -9 LegendNANA
12:00 Legend Double Dagger -3.7 -7.8 73 31 9 16.1 100.29   -7 LegendNANA
13:00 Legend Double Dagger -3.6 -7.9 72 30 11 16.1 100.29   -8 LegendNANA
14:00 Legend Double Dagger -3.6 -8.5 69 31 9 16.1 100.29   -7 LegendNANA
15:00 Legend Double Dagger -3.5 -9.0 66 32 5 16.1 100.29   -6 LegendNANA
16:00 Legend Double Dagger -5.7 -8.9 78 30 11 16.1 100.29   -10 LegendNANA
17:00 Legend Double Dagger -5.9 -9.5 76 29 15 16.1 100.32   -12 LegendNANA
18:00 Legend Double Dagger -5.4 -8.8 77 29 17 16.1 100.31   -11 LegendNANA
19:00 Legend Double Dagger -5.5 -8.8 78 30 15 16.1 100.29   -11 LegendNANA
20:00 Legend Double Dagger -6.7 -10.5 75 29 24 16.1 100.26   -14 LegendNANA
21:00 Legend Double Dagger -6.4 -10.1 75 29 26 16.1 100.26   -14 LegendNANA
22:00 Legend Double Dagger -6.4 -9.7 78 29 26 16.1 100.23   -14 LegendNANA
23:00 Legend Double Dagger -6.1 -9.6 76 29 28 16.1 100.18   -14 Snow

Notes on Data Quality.

Legend

  • E = Estimated
  • M = Missing
  • NA = Not Available
  • ‡ = Partner data that is not subject to review by the National Climate Archives
Date modified: